User: anonymous   Login
Location: Guayaquil
(2.1667°S, 79.9000°W)
Time: 04:52:12
(UTC-05:00)
Language:

NEE 01 PEGASUS - Orbit

View from above orbital plane
View from above orbital plane
View from above satellite
View from above satellite

Ground track
Ground track

The orbit data is extracted from the following two-line orbital elements,

1 39151U 13018B   18320.22499594  .00000172  00000-0  29738-4 0  9993
2 39151  97.9755  53.2261 0017339 172.1000 188.0488 14.79964861300001
Epoch (UTC): 16 November 2018 05:23:59
Eccentricity: 0.0017339
inclination: 97.9755°
perigee height: 617 km
apogee height: 641 km
right ascension of ascending node: 53.2261°
argument of perigee: 172.1000°
revolutions per day: 14.79964861
mean anomaly at epoch: 188.0488°
orbit number at epoch: 30000

The dashed part of the orbit path shows where the satellite is in the earth's shadow,  

DLR